N8JLK-WX Weather Reports


time (UTC)temp
C
wind
direction
speed
KPH
gust
KPH
rain 1hr
cm
rain 24hr
cm
rain mn
cm
humidity
%
barometer
mb
20260503224519 13 117 4.8 9.7 0.00 0.00 0.00 38 1013.8
20260503223547 13 106 6.4 9.7 0.00 0.00 0.00 37 1013.9
20260503222543 13 81 6.4 12.9 0.00 0.00 0.00 37 1013.9
20260503221524 13 125 8.0 17.7 0.00 0.00 0.00 37 1014.0
20260503220520 14 133 8.0 12.9 0.00 0.00 0.00 37 1013.9
20260503215528 14 98 4.8 11.3 0.00 0.00 0.00 37 1013.8
20260503214529 13 77 4.8 11.3 0.00 0.00 0.00 37 1013.9
20260503213531 13 78 6.4 11.3 0.00 0.00 0.00 37 1014.0
20260503212527 13 100 8.0 14.5 0.00 0.00 0.00 37 1013.9
20260503211549 13 123 6.4 24.1 0.00 0.00 0.00 36 1014.0
20260503210529 14 89 4.8 8.0 0.00 0.00 0.00 36 1013.9
20260503205526 14 92 8.0 11.3 0.00 0.00 0.00 36 1013.9
20260503204525 14 95 6.4 11.3 0.00 0.00 0.00 35 1014.0
20260503203521 14 94 4.8 8.0 0.00 0.00 0.00 35 1014.0
20260503202515 15 31 4.8 11.3 0.00 0.00 0.00 35 1014.2
20260503201529 14 160 4.8 8.0 0.00 0.00 0.00 35 1014.4
20260503200525 15 46 6.4 11.3 0.00 0.00 0.00 36 1014.5
20260503195540 15 69 8.0 14.5 0.00 0.00 0.00 36 1014.5
20260503194516 15 95 8.0 11.3 0.00 0.00 0.00 35 1014.8
20260503193530 15 136 4.8 14.5 0.00 0.00 0.00 35 1015.1
20260503192524 15 77 4.8 8.0 0.00 0.00 0.00 34 1015.1
20260503191520 15 106 6.4 9.7 0.00 0.00 0.00 34 1015.2
20260503190532 15 85 8.0 16.1 0.00 0.00 0.00 34 1015.3
20260503185534 15 78 4.8 8.0 0.00 0.00 0.00 33 1015.3
20260503184517 16 87 4.8 8.0 0.00 0.00 0.00 33 1015.5
20260503183523 17 116 6.4 12.9 0.00 0.00 0.00 32 1015.5
20260503182539 17 87 6.4 12.9 0.00 0.00 0.00 34 1015.8
20260503181520 17 90 6.4 9.7 0.00 0.00 0.00 32 1015.8
20260503180533 17 123 4.8 8.0 0.00 0.00 0.00 33 1015.9
20260503175528 17 67 4.8 8.0 0.00 0.00 0.00 33 1016.0
20260503174529 17 119 8.0 14.5 0.00 0.00 0.00 34 1016.2
20260503173530 18 92 6.4 9.7 0.00 0.00 0.00 33 1016.2
20260503172520 18 60 3.2 6.4 0.00 0.00 0.00 34 1016.4
20260503171516 17 51 4.8 8.0 0.00 0.00 0.00 34 1016.5
20260503170517 17 92 4.8 9.7 0.00 0.00 0.00 33 1016.6
20260503150645 13 79 4.8 9.7 0.00 0.00 0.00 36 1017.3
20260503130531 6 101 4.8 8.0 0.00 0.00 0.00 49 1018.0
20260503110519 0 100 3.2 4.8 0.00 0.00 0.00 73 1017.4
20260503081521 0 114 1.6 3.2 0.00 0.00 0.00 76 1017.3
20260503080517 0 107 1.6 4.8 0.00 0.00 0.00 76 1017.3
20260503072522 1 87 1.6 4.8 0.00 0.00 0.00 76 1017.3
20260503071536 1 102 1.6 4.8 0.00 0.00 0.00 76 1017.3
20260503070530 1 114 3.2 4.8 0.00 0.00 0.00 76 1017.4
20260503054518 1 110 1.6 4.8 0.00 0.00 0.00 75 1017.6
20260503053525 1 80 3.2 4.8 0.00 0.00 0.00 75 1017.7
20260503052521 1 88 3.2 4.8 0.00 0.00 0.00 74 1017.7
20260503051603 1 90 3.2 3.2 0.00 0.00 0.00 74 1017.7
20260503050538 1 0.0 0.0 0.00 0.00 0.00 73 1017.8
20260503045530 1 87 3.2 4.8 0.00 0.00 0.00 73 1017.9
20260503044524 1 96 1.6 3.2 0.00 0.00 0.00 72 1017.9
20260503043520 2 100 3.2 4.8 0.00 0.00 0.00 71 1017.9
20260503042517 2 93 3.2 4.8 0.00 0.00 0.00 71 1017.8
20260503041530 2 97 3.2 4.8 0.00 0.00 0.00 70 1018.0
20260503040525 2 115 4.8 6.4 0.00 0.00 0.00 70 1018.0
20260503035521 2 100 3.2 4.8 0.00 0.00 0.00 69 1018.0
20260503034516 2 100 3.2 4.8 0.00 0.00 0.00 68 1018.0
20260503033529 2 95 3.2 4.8 0.00 0.00 0.00 68 1018.1
20260503032526 2 113 1.6 3.2 0.00 0.00 0.00 68 1018.1
20260503031540 2 113 1.6 3.2 0.00 0.00 0.00 68 1018.2
20260503030516 2 101 3.2 4.8 0.00 0.00 0.00 68 1018.2
20260503025530 2 105 3.2 3.2 0.00 0.00 0.00 68 1018.3
20260503024525 2 104 0.0 3.2 0.00 0.00 0.00 68 1018.4
20260503023521 2 86 1.6 3.2 0.00 0.00 0.00 67 1018.4
20260503022516 2 104 3.2 3.2 0.00 0.00 0.00 67 1018.4
20260503021531 2 98 3.2 3.2 0.00 0.00 0.00 66 1018.4
20260503020525 2 90 0.0 3.2 0.00 0.00 0.00 65 1018.4
20260503015520 2 0.0 0.0 0.00 0.00 0.00 64 1018.4
20260503014515 3 0.0 0.0 0.00 0.00 0.00 63 1018.4
20260503013523 3 0.0 0.0 0.00 0.00 0.00 62 1018.4
20260503012519 3 0.0 0.0 0.00 0.00 0.00 61 1018.4
20260503011527 3 0.0 0.0 0.00 0.00 0.00 60 1018.4
20260503010523 3 0.0 0.0 0.00 0.00 0.00 58 1018.4
20260503005518 3 0.0 0.0 0.00 0.00 0.00 58 1018.3
20260503004518 4 0.0 0.0 0.00 0.00 0.00 57 1018.2
20260503003532 4 0.0 0.0 0.00 0.00 0.00 56 1018.2
20260503002549 4 0.0 0.0 0.00 0.00 0.00 55 1018.2
20260503001523 4 0.0 0.0 0.00 0.00 0.00 55 1018.2
20260503000538 5 0.0 0.0 0.00 0.00 0.00 54 1018.2
20260502235533 5 352 0.0 3.2 0.00 0.00 0.00 53 1018.1
20260502234527 5 52 1.6 4.8 0.00 0.00 0.00 53 1018.1
20260502233522 5 68 1.6 3.2 0.00 0.00 0.00 52 1018.1
20260502232523 5 78 1.6 3.2 0.00 0.00 0.00 52 1018.1
20260502231519 5 71 3.2 4.8 0.00 0.00 0.00 52 1018.2
20260502230527 5 73 1.6 4.8 0.00 0.00 0.00 51 1018.2
20260502225522 6 82 1.6 4.8 0.00 0.00 0.00 52 1018.1